Location: Marne
(34.0056°N, 117.9064°W)
Time: 06:18:01
(UTC+00:00)

Cosmos 44 - Pass Details

Date: 18 January 2020
Orbit: 595 x 767 km, 65.1° (Epoch: 17 February)

Event Time Altitude Azimuth Distance (km) Brightness Sun altitude
Rises 03:10:07 0° 204° (SSW) 3,016 7.0 -25.2°
Reaches altitude 10° 03:12:29 10° 203° (SSW) 2,077 6.1 -25.7°
Enters shadow 03:16:03 51° 194° (SSW) 813 3.7 -26.4°
